When you browse on this site, cookies collect data to enhance your experience and personalize the content and advertising you see.
Visit our Privacy Policy to learn more. By continuing to use the site, you agree to this use of cookies and data.
  • en Suisse
  • Liste des pays
  • À 7 jours
  • Température de l'eau
  • Carte météo
  • Widgets météo
  • user-avatar
    Se connecter

    Météo par heure à Shusha

    Ce jour, 25 Février, Mardi

    Heure Température Précipitation Vent Pression Humidité
    00:00 +4°C° 0 mm 2 m/s 653 mmHg 58%
    01:00 +4°C° 0 mm 2 m/s 652 mmHg 58%
    02:00 +4°C° 0 mm 2 m/s 652 mmHg 58%
    03:00 +4°C° 0 mm 2 m/s 652 mmHg 57%
    04:00 +4°C° 0 mm 2 m/s 652 mmHg 57%
    05:00 +4°C° 0 mm 2 m/s 651 mmHg 57%
    06:00 +4°C° 0 mm 2 m/s 651 mmHg 56%
    07:00 +5°C° 0 mm 2 m/s 651 mmHg 53%
    08:00 +7°C° 0 mm 2 m/s 652 mmHg 49%
    09:00 +9°C° 0 mm 1 m/s 652 mmHg 46%
    10:00 +9°C° 0 mm 2 m/s 652 mmHg 45%
    11:00 +10°C° 0 mm 3 m/s 652 mmHg 44%
    12:00 +10°C° 0 mm 3 m/s 652 mmHg 43%
    13:00 +10°C° 0 mm 4 m/s 652 mmHg 47%
    14:00 +8°C° 0 mm 4 m/s 652 mmHg 51%
    15:00 +8°C° 0 mm 4 m/s 652 mmHg 54%
    16:00 +6°C° 0.3 mm 4 m/s 653 mmHg 64%
    17:00 +4°C° 0.3 mm 3 m/s 653 mmHg 74%
    18:00 +2°C° 0.3 mm 2 m/s 654 mmHg 84%
    19:00 +1°C° 0.6 mm 3 m/s 655 mmHg 86%
    20:00 +1°C° 0.6 mm 3 m/s 656 mmHg 88%
    21:00 0°C° 0.6 mm 3 m/s 657 mmHg 90%
    22:00 -1°C° 0.3 mm 3 m/s 657 mmHg 90%
    23:00 -1°C° 0.3 mm 3 m/s 657 mmHg 90%

    Demain, 26 Février, Mercredi

    Heure Température Précipitation Vent Pression Humidité
    00:00 -2°C° 0.3 mm 3 m/s 657 mmHg 90%
    01:00 -2°C° 0.1 mm 2 m/s 657 mmHg 89%
    02:00 0°C° 0.1 mm 1 m/s 657 mmHg 88%
    03:00 -1°C° 0.1 mm 1 m/s 657 mmHg 87%
    04:00 -1°C° 0 mm 1 m/s 657 mmHg 87%
    05:00 -1°C° 0 mm 1 m/s 658 mmHg 86%
    06:00 -1°C° 0 mm 1 m/s 658 mmHg 86%
    07:00 -1°C° 0.1 mm 1 m/s 659 mmHg 80%
    08:00 -2°C° 0.1 mm 2 m/s 659 mmHg 75%
    09:00 -1°C° 0.1 mm 2 m/s 660 mmHg 69%
    10:00 -1°C° 0 mm 2 m/s 660 mmHg 67%
    11:00 +1°C° 0 mm 2 m/s 660 mmHg 65%
    12:00 +2°C° 0 mm 2 m/s 660 mmHg 63%
    13:00 +2°C° 0 mm 2 m/s 660 mmHg 63%
    14:00 +2°C° 0 mm 2 m/s 660 mmHg 62%
    15:00 +2°C° 0 mm 2 m/s 660 mmHg 61%
    16:00 +3°C° 0 mm 1 m/s 660 mmHg 65%
    17:00 +2°C° 0 mm 1 m/s 660 mmHg 68%
    18:00 +1°C° 0 mm 1 m/s 660 mmHg 71%
    19:00 +1°C° 0 mm 1 m/s 660 mmHg 71%
    20:00 +1°C° 0 mm 1 m/s 660 mmHg 72%
    21:00 +1°C° 0 mm 1 m/s 660 mmHg 72%
    22:00 +1°C° 0 mm 1 m/s 660 mmHg 71%
    23:00 +1°C° 0 mm 1 m/s 660 mmHg 70%

    Après-demain, 27 Février, Jeudi

    Heure Température Précipitation Vent Pression Humidité
    00:00 +1°C° 0 mm 1 m/s 660 mmHg 68%
    01:00 +1°C° 0 mm 1 m/s 660 mmHg 66%
    02:00 +1°C° 0 mm 1 m/s 660 mmHg 63%
    03:00 0°C° 0 mm 0 m/s 659 mmHg 61%
    04:00 0°C° 0 mm 0 m/s 659 mmHg 59%
    05:00 +1°C° 0 mm 1 m/s 659 mmHg 57%
    06:00 +1°C° 0 mm 1 m/s 659 mmHg 55%
    07:00 +3°C° 0 mm 1 m/s 660 mmHg 51%
    08:00 +4°C° 0 mm 1 m/s 660 mmHg 47%
    09:00 +6°C° 0 mm 1 m/s 661 mmHg 44%
    10:00 +7°C° 0 mm 1 m/s 661 mmHg 43%
    11:00 +8°C° 0 mm 1 m/s 661 mmHg 42%
    12:00 +10°C° 0 mm 1 m/s 661 mmHg 41%
    13:00 +10°C° 0 mm 1 m/s 660 mmHg 43%
    14:00 +10°C° 0 mm 1 m/s 660 mmHg 45%
    15:00 +11°C° 0 mm 1 m/s 660 mmHg 48%
    16:00 +9°C° 0 mm 1 m/s 659 mmHg 52%
    17:00 +8°C° 0 mm 1 m/s 659 mmHg 57%
    18:00 +6°C° 0 mm 1 m/s 658 mmHg 62%
    19:00 +6°C° 0 mm 1 m/s 658 mmHg 58%
    20:00 +6°C° 0 mm 1 m/s 658 mmHg 55%
    21:00 +5°C° 0 mm 2 m/s 658 mmHg 51%
    22:00 +5°C° 0 mm 2 m/s 657 mmHg 47%
    23:00 +5°C° 0 mm 2 m/s 657 mmHg 43%

    28 Février, Vendredi

    Heure Température Précipitation Vent Pression Humidité
    00:00 +5°C° 0 mm 2 m/s 657 mmHg 39%
    01:00 +5°C° 0 mm 2 m/s 656 mmHg 38%
    02:00 +5°C° 0 mm 2 m/s 656 mmHg 37%
    03:00 +5°C° 0 mm 2 m/s 655 mmHg 37%
    04:00 +5°C° 0 mm 2 m/s 655 mmHg 36%
    05:00 +5°C° 0 mm 2 m/s 655 mmHg 36%
    06:00 +5°C° 0 mm 2 m/s 654 mmHg 35%
    07:00 +6°C° 0 mm 2 m/s 655 mmHg 36%
    08:00 +7°C° 0 mm 2 m/s 655 mmHg 38%
    09:00 +9°C° 0 mm 2 m/s 655 mmHg 39%
    10:00 +10°C° 0 mm 2 m/s 655 mmHg 37%
    11:00 +12°C° 0 mm 2 m/s 655 mmHg 35%
    12:00 +14°C° 0 mm 2 m/s 655 mmHg 33%
    13:00 +14°C° 0 mm 2 m/s 655 mmHg 33%
    14:00 +14°C° 0 mm 2 m/s 655 mmHg 32%
    15:00 +15°C° 0 mm 2 m/s 654 mmHg 32%
    16:00 +13°C° 0 mm 2 m/s 654 mmHg 36%
    17:00 +12°C° 0 mm 2 m/s 654 mmHg 41%
    18:00 +9°C° 0 mm 2 m/s 653 mmHg 45%
    19:00 +9°C° 0 mm 2 m/s 654 mmHg 46%
    20:00 +8°C° 0 mm 2 m/s 654 mmHg 46%
    21:00 +7°C° 0 mm 3 m/s 654 mmHg 46%
    22:00 +7°C° 0 mm 2 m/s 654 mmHg 46%
    23:00 +6°C° 0 mm 2 m/s 654 mmHg 47%

    29 Février, Samedi

    Heure Température Précipitation Vent Pression Humidité
    00:00 +6°C° 0 mm 2 m/s 654 mmHg 47%
    01:00 +5°C° 0 mm 2 m/s 654 mmHg 49%
    02:00 +5°C° 0 mm 2 m/s 654 mmHg 50%
    03:00 +4°C° 0 mm 2 m/s 654 mmHg 52%
    04:00 +4°C° 0 mm 2 m/s 655 mmHg 54%
    05:00 +4°C° 0 mm 2 m/s 655 mmHg 56%
    06:00 +3°C° 0 mm 2 m/s 655 mmHg 58%
    07:00 +5°C° 0 mm 1 m/s 655 mmHg 55%
    08:00 +7°C° 0 mm 1 m/s 656 mmHg 53%
    09:00 +8°C° 0 mm 1 m/s 656 mmHg 50%
    10:00 +8°C° 0 mm 2 m/s 655 mmHg 50%
    11:00 +8°C° 0 mm 2 m/s 655 mmHg 50%
    12:00 +8°C° 0 mm 2 m/s 654 mmHg 50%
    13:00 +8°C° 0 mm 2 m/s 654 mmHg 53%
    14:00 +8°C° 0 mm 2 m/s 653 mmHg 55%
    15:00 +8°C° 0 mm 2 m/s 652 mmHg 58%
    16:00 +7°C° 0 mm 2 m/s 652 mmHg 65%
    17:00 +6°C° 0 mm 2 m/s 652 mmHg 72%
    18:00 +6°C° 0 mm 1 m/s 651 mmHg 79%
    19:00 +6°C° 0 mm 1 m/s 651 mmHg 80%
    20:00 +5°C° 0 mm 1 m/s 651 mmHg 82%
    21:00 +4°C° 0 mm 0 m/s 651 mmHg 83%
    22:00 +5°C° 0.2 mm 1 m/s 650 mmHg 84%
    23:00 +5°C° 0.2 mm 1 m/s 650 mmHg 85%

    1 Mars, Dimanche

    Heure Température Précipitation Vent Pression Humidité
    00:00 +5°C° 0.2 mm 1 m/s 650 mmHg 85%
    01:00 +3°C° 0 mm 2 m/s 650 mmHg 87%
    02:00 +2°C° 0 mm 2 m/s 650 mmHg 89%
    03:00 +2°C° 0 mm 2 m/s 650 mmHg 92%
    04:00 +2°C° 0 mm 2 m/s 650 mmHg 91%
    05:00 +1°C° 0 mm 2 m/s 651 mmHg 91%
    06:00 +1°C° 0 mm 2 m/s 651 mmHg 91%
    07:00 +2°C° 0.2 mm 2 m/s 651 mmHg 87%
    08:00 +2°C° 0.2 mm 2 m/s 652 mmHg 83%
    09:00 +2°C° 0.2 mm 2 m/s 652 mmHg 79%
    10:00 +2°C° 0.3 mm 2 m/s 653 mmHg 75%
    11:00 +3°C° 0.3 mm 2 m/s 653 mmHg 70%
    12:00 +3°C° 0.3 mm 2 m/s 654 mmHg 65%
    13:00 +2°C° 0.6 mm 3 m/s 654 mmHg 61%
    14:00 +1°C° 0.6 mm 4 m/s 655 mmHg 57%
    15:00 +1°C° 0.6 mm 5 m/s 655 mmHg 53%
    16:00 0°C° 0.2 mm 4 m/s 656 mmHg 54%
    17:00 +1°C° 0.2 mm 3 m/s 656 mmHg 55%
    18:00 +1°C° 0.2 mm 2 m/s 657 mmHg 56%
    19:00 -1°C° 0 mm 2 m/s 658 mmHg 57%
    20:00 -1°C° 0 mm 2 m/s 658 mmHg 59%
    21:00 +1°C° 0 mm 1 m/s 659 mmHg 60%
    22:00 0°C° 0 mm 1 m/s 659 mmHg 60%
    23:00 0°C° 0 mm 1 m/s 659 mmHg 61%
    Voir plus